TimeCDT,TemperatureF,Dew PointF,Humidity,Sea Level PressureIn,VisibilityMPH,Wind Direction,Wind SpeedMPH,Gust SpeedMPH,PrecipitationIn,Events,Conditions,WindDirDegrees,DateUTC
12:18 AM,58.3,53.6,84,29.94,10.0,Calm,Calm,-,N/A,,Clear,0,2013-09-25 05:18:00
12:38 AM,58.1,53.8,86,29.94,10.0,Calm,Calm,-,N/A,,Clear,0,2013-09-25 05:38:00
12:57 AM,58.6,53.8,84,29.94,10.0,Calm,Calm,-,N/A,,Clear,0,2013-09-25 05:57:00
1:18 AM,58.1,53.4,84,29.94,10.0,Calm,Calm,-,N/A,,Clear,0,2013-09-25 06:18:00
1:38 AM,57.9,53.1,84,29.94,10.0,Calm,Calm,-,N/A,,Clear,0,2013-09-25 06:38:00
1:58 AM,57.7,53.1,84,29.94,10.0,Calm,Calm,-,N/A,,Clear,0,2013-09-25 06:58:00
2:17 AM,58.1,53.6,85,29.94,10.0,Calm,Calm,-,N/A,,Clear,0,2013-09-25 07:17:00
2:38 AM,57.7,53.2,85,29.94,10.0,Calm,Calm,-,N/A,,Clear,0,2013-09-25 07:38:00
2:57 AM,57.9,53.6,86,29.94,10.0,Calm,Calm,-,N/A,,Clear,0,2013-09-25 07:57:00
3:17 AM,58.1,53.8,86,29.94,10.0,Calm,Calm,-,N/A,,Clear,0,2013-09-25 08:17:00
3:37 AM,57.7,53.6,86,29.94,10.0,SSW,10.4,-,N/A,,Clear,200,2013-09-25 08:37:00
3:57 AM,57.6,53.6,87,29.94,10.0,SSW,9.2,-,N/A,,Clear,200,2013-09-25 08:57:00
4:18 AM,57.4,53.6,87,29.93,10.0,SSW,6.9,-,N/A,,Clear,200,2013-09-25 09:18:00
4:38 AM,57.4,53.4,87,29.93,10.0,SSW,9.2,-,N/A,,Clear,200,2013-09-25 09:38:00
4:58 AM,56.7,52.9,87,29.93,10.0,SSW,8.1,-,N/A,,Clear,200,2013-09-25 09:58:00
5:17 AM,56.5,52.7,87,29.92,10.0,South,8.1,-,N/A,,Clear,190,2013-09-25 10:17:00
5:38 AM,56.3,52.2,86,29.92,10.0,Calm,Calm,-,N/A,,Clear,0,2013-09-25 10:38:00
5:57 AM,56.8,51.8,83,29.92,10.0,SSW,9.2,-,N/A,,Clear,200,2013-09-25 10:57:00
6:18 AM,56.5,51.6,84,29.92,10.0,South,8.1,-,N/A,,Clear,190,2013-09-25 11:18:00
6:38 AM,57.2,51.4,81,29.92,10.0,SSW,9.2,-,N/A,,Clear,200,2013-09-25 11:38:00
6:57 AM,56.5,51.1,82,29.94,10.0,SSW,10.4,-,N/A,,Clear,200,2013-09-25 11:57:00
7:18 AM,55.9,51.3,84,29.94,10.0,SSW,9.2,-,N/A,,Clear,200,2013-09-25 12:18:00
7:37 AM,56.3,51.1,83,29.94,10.0,SSW,10.4,-,N/A,,Scattered Clouds,200,2013-09-25 12:37:00
7:57 AM,56.5,51.1,82,29.93,10.0,SSW,9.2,-,N/A,,Scattered Clouds,200,2013-09-25 12:57:00
8:17 AM,58.5,51.8,79,29.94,10.0,SSW,10.4,-,N/A,,Scattered Clouds,210,2013-09-25 13:17:00
8:38 AM,59.7,51.8,75,29.92,10.0,South,3.5,-,N/A,,Scattered Clouds,190,2013-09-25 13:38:00
8:58 AM,61.0,52.3,73,29.94,10.0,Calm,Calm,-,N/A,,Clear,0,2013-09-25 13:58:00
9:17 AM,62.2,52.9,71,29.94,10.0,South,8.1,-,N/A,,Clear,190,2013-09-25 14:17:00
9:37 AM,63.7,52.9,68,29.92,10.0,South,10.4,-,N/A,,Clear,190,2013-09-25 14:37:00
9:58 AM,65.7,54.1,66,29.92,10.0,South,10.4,16.1,N/A,,Clear,190,2013-09-25 14:58:00
10:18 AM,67.5,54.0,62,29.92,10.0,South,8.1,-,N/A,,Clear,190,2013-09-25 15:18:00
10:38 AM,68.5,53.4,58,29.93,10.0,South,11.5,16.1,N/A,,Clear,170,2013-09-25 15:38:00
10:57 AM,68.2,52.5,57,29.93,10.0,SSE,12.7,17.3,N/A,,Clear,160,2013-09-25 15:57:00
11:17 AM,70.7,51.6,51,29.94,10.0,SSE,11.5,18.4,N/A,,Clear,160,2013-09-25 16:17:00
11:37 AM,71.2,51.4,50,29.93,10.0,SE,15.0,18.4,N/A,,Clear,140,2013-09-25 16:37:00
11:58 AM,71.8,50.5,47,29.92,10.0,SSE,15.0,21.9,N/A,,Clear,150,2013-09-25 16:58:00
12:17 PM,72.7,50.7,46,29.92,10.0,South,13.8,17.3,N/A,,Clear,180,2013-09-25 17:17:00
12:38 PM,72.9,50.5,45,29.91,10.0,SE,13.8,18.4,N/A,,Clear,140,2013-09-25 17:38:00
12:58 PM,73.9,50.0,43,29.89,10.0,SSE,11.5,18.4,N/A,,Clear,150,2013-09-25 17:58:00
1:17 PM,73.9,49.8,43,29.89,10.0,South,10.4,23.0,N/A,,Clear,170,2013-09-25 18:17:00
1:38 PM,74.8,49.8,41,29.88,10.0,SSE,15.0,20.7,N/A,,Clear,160,2013-09-25 18:38:00
1:58 PM,75.6,48.4,38,29.87,10.0,SE,18.4,-,N/A,,Clear,140,2013-09-25 18:58:00
2:18 PM,75.4,48.7,39,29.86,10.0,SSE,12.7,19.6,N/A,,Clear,150,2013-09-25 19:18:00
2:38 PM,75.0,49.5,40,29.85,10.0,South,15.0,21.9,N/A,,Clear,190,2013-09-25 19:38:00
2:56 PM,76.3,49.8,39,29.84,10.0,SSE,15.0,23.0,N/A,,Clear,150,2013-09-25 19:56:00
3:05 PM,75.2,50.0,41,29.84,10.0,SSE,12.7,24.2,N/A,,Clear,150,2013-09-25 20:05:00
3:22 PM,76.6,49.8,39,29.84,10.0,South,16.1,21.9,N/A,,Clear,170,2013-09-25 20:22:00
3:38 PM,76.8,49.6,38,29.82,10.0,SSE,20.7,-,N/A,,Clear,160,2013-09-25 20:38:00
3:57 PM,77.0,49.5,38,29.82,10.0,SSE,13.8,21.9,N/A,,Clear,160,2013-09-25 20:57:00
4:17 PM,77.0,49.8,38,29.80,10.0,SE,21.9,28.8,N/A,,Clear,140,2013-09-25 21:17:00
4:38 PM,76.6,49.3,38,29.81,10.0,SSE,15.0,21.9,N/A,,Clear,150,2013-09-25 21:38:00
4:58 PM,76.6,49.5,38,29.80,10.0,SE,18.4,21.9,N/A,,Clear,140,2013-09-25 21:58:00
5:17 PM,76.1,49.1,39,29.80,10.0,SE,16.1,-,N/A,,Clear,140,2013-09-25 22:17:00
5:38 PM,75.9,48.2,37,29.80,10.0,SSE,13.8,19.6,N/A,,Clear,150,2013-09-25 22:38:00
5:58 PM,75.2,48.7,39,29.80,10.0,SSE,15.0,21.9,N/A,,Clear,150,2013-09-25 22:58:00
6:17 PM,74.5,48.9,40,29.79,10.0,SSE,10.4,-,N/A,,Clear,150,2013-09-25 23:17:00
6:37 PM,73.4,49.1,42,29.79,10.0,SSE,10.4,17.3,N/A,,Clear,150,2013-09-25 23:37:00
6:58 PM,71.6,50.2,47,29.79,10.0,Calm,Calm,-,N/A,,Clear,0,2013-09-25 23:58:00
7:18 PM,69.4,50.4,51,29.79,10.0,Calm,Calm,-,N/A,,Clear,0,2013-09-26 00:18:00
7:38 PM,67.5,50.7,55,29.80,10.0,Calm,Calm,-,N/A,,Clear,0,2013-09-26 00:38:00
7:58 PM,65.7,50.9,59,29.79,10.0,Calm,Calm,-,N/A,,Clear,0,2013-09-26 00:58:00
8:18 PM,64.6,50.9,61,29.79,10.0,Calm,Calm,-,N/A,,Clear,0,2013-09-26 01:18:00
8:37 PM,63.5,51.1,64,29.79,10.0,Calm,Calm,-,N/A,,Clear,0,2013-09-26 01:37:00
8:58 PM,63.0,51.3,66,29.79,10.0,Calm,Calm,-,N/A,,Clear,0,2013-09-26 01:58:00
9:18 PM,61.9,51.1,68,29.81,10.0,Calm,Calm,-,N/A,,Clear,0,2013-09-26 02:18:00
9:38 PM,60.8,51.1,70,29.82,10.0,Calm,Calm,-,N/A,,Clear,0,2013-09-26 02:38:00
9:57 PM,60.8,51.4,71,29.83,10.0,Calm,Calm,-,N/A,,Clear,0,2013-09-26 02:57:00
10:18 PM,61.0,51.8,72,29.82,10.0,Calm,Calm,-,N/A,,Clear,0,2013-09-26 03:18:00
10:38 PM,61.9,52.7,72,29.83,10.0,SE,8.1,-,N/A,,Clear,140,2013-09-26 03:38:00
10:58 PM,61.9,52.7,72,29.83,10.0,SE,9.2,-,N/A,,Clear,140,2013-09-26 03:58:00
11:18 PM,61.5,52.7,73,29.83,10.0,SE,6.9,-,N/A,,Clear,140,2013-09-26 04:18:00
11:38 PM,61.0,52.9,75,29.83,10.0,Calm,Calm,-,N/A,,Clear,0,2013-09-26 04:38:00
11:57 PM,61.0,52.9,75,29.84,10.0,Calm,Calm,-,N/A,,Clear,0,2013-09-26 04:57:00